Simultaneous Nadir Overpasses (SNOs) Predictions

Prediction of SNOs between TERRA and METOP-C Satellite Orbit:

Table of predicted SNOs for the next 14.0 days since TLE Epoch: 12/7/2019
Index Date (TERRA) Time (TERRA) Lat,Lon (TERRA) SZA (TERRA ) Date (METOP-C) Time (METOP-C) Lat,Lon (METOP-C) SZA (METOP-C ) Distance(km) Time Diff (sec)
1 12/08/2019 22:38:21 81.34,-111.67 107.00 12/08/2019 22:38:17 81.33,-111.58 107.01 1.63 4
2 12/08/2019 23:27:48 -81.33, 55.86 73.01 12/08/2019 23:28:57 -81.33, 55.76 72.99 1.80 69
3 12/11/2019 17:23:09 -81.33, 146.98 72.80 12/11/2019 17:21:57 -81.33, 146.89 72.85 1.56 72
4 12/11/2019 18:12:35 81.34, -45.27 107.22 12/11/2019 18:12:37 81.33, -45.20 107.23 1.23 2
5 12/11/2019 19:01:48 -81.57, 127.77 72.02 12/11/2019 19:03:02 -81.36, 128.07 72.08 24.42 74
6 12/14/2019 12:57:24 -81.33,-146.63 72.65 12/14/2019 12:56:18 -81.33,-146.70 72.69 1.26 66
7 12/14/2019 13:46:50 81.33, 21.10 107.37 12/14/2019 13:46:58 81.33, 21.18 107.38 1.43 8
8 12/17/2019 08:31:39 -81.32, -80.28 72.57 12/17/2019 08:30:39 -81.33, -80.30 72.59 0.58 60
9 12/17/2019 09:21:05 81.33, 87.43 107.45 12/17/2019 09:21:19 81.33, 87.56 107.48 2.32 14
10 12/20/2019 04:05:52 -81.34, -13.58 72.49 12/20/2019 04:04:58 -81.33, -13.50 72.51 1.53 54




NCC Satellite Simultaneous Nadir Overpasses (SNOs) Prediction Service
